Terminal Aerodrome Forecast
Issued by NWS Wilmington, NC

Home | Current Version | Previous Version | Text Only | Print | Product List | Glossary On
Versions: 1 2 3 4 5 6 7 8 9 10 11 12 13 14 15 16 17
061
FTUS42 KILM 172320
TAFMYR
TAF
KMYR 172320Z 1800/1824 02006KT P6SM SKC
     FM181400 03010KT P6SM SCT040 SCT250=

USA.gov is the U.S. government's official web portal to all federal, state and local government web resources and services.